Location: Castelbiague
(43.0361°N, 0.9246°E)
Time: 07:41:13
(UTC+00:00)

USA 215 - Pass Details

Date: 24 October 2021
Orbit: 1099 x 1109 km, 123.0° (Epoch: 20 November)

Event Time Altitude Azimuth Distance (km) Brightness Sun altitude
Exits shadow 19:08:35 17° 33° (NNE) 2,461 4.8 -24.2°
Maximum altitude 19:12:30 31° 345° (NNW) 1,830 4.6 -24.9°
Drops below altitude 10° 19:18:04 10° 286° (WNW) 2,964 6.5 -26.0°
Sets 19:20:49 0° 277° (W) 3,922 7.5 -26.5°
